This is the latest recevied weather packets stored in our database for station/object DB0RV-13. If no packets are shown the sender has not sent any weather packets the latest 1 day(s).
| Time | Temp. | Humidity | Pressure | Rain* | Wind** | Luminosity | Snow |
|---|---|---|---|---|---|---|---|
| 1777998002 | 16.11° C | 71% | 1007 hPa | - | 0 m/s | - | - |
| 1777997701 | 16.11° C | 71% | 1006.9 hPa | - | 0.89 m/s, 249° | - | - |
| 1777997402 | 15.56° C | 71% | 1006.9 hPa | - | 1.34 m/s, 288° | - | - |
| 1777997101 | 15.56° C | 69% | 1006.8 hPa | - | 0.89 m/s, 315° | - | - |
| 1777996802 | 16.11° C | 69% | 1006.7 hPa | - | 1.79 m/s, 307° | - | - |
| 1777996502 | 15.56° C | 70% | 1006.7 hPa | - | 0 m/s | - | - |
| 1777996201 | 15.56° C | 73% | 1006.6 hPa | - | 1.34 m/s, 130° | - | - |
| 1777995902 | 15.56° C | 75% | 1006.7 hPa | - | 1.34 m/s, 113° | - | - |
| 1777995601 | 15.56° C | 78% | 1006.6 hPa | - | 0.45 m/s, 106° | - | - |
| 1777995302 | 15° C | 80% | 1006.8 hPa | - | 0.89 m/s, 71° | - | - |
| 1777995001 | 15° C | 83% | 1006.8 hPa | - | 1.34 m/s, 154° | - | - |
| 1777994702 | 14.44° C | 83% | 1006.7 hPa | - | 1.34 m/s, 127° | - | - |
| 1777994401 | 14.44° C | 82% | 1006.8 hPa | - | 1.34 m/s, 149° | - | - |
| 1777994102 | 14.44° C | 83% | 1006.9 hPa | - | 1.34 m/s, 175° | - | - |
| 1777993802 | 14.44° C | 82% | 1007.3 hPa | - | 1.34 m/s, 207° | - | - |
| 1777993501 | 14.44° C | 79% | 1007.3 hPa | - | 2.68 m/s, 236° | - | - |
| 1777993202 | 15° C | 75% | 1007.4 hPa | - | 2.24 m/s, 221° | - | - |
| 1777992902 | 15.56° C | 65% | 1007.3 hPa | - | 1.34 m/s, 283° | - | - |
| 1777992602 | 15.56° C | 65% | 1007.2 hPa | - | 0.89 m/s, 333° | - | - |
| 1777992301 | 15.56° C | 65% | 1007.2 hPa | - | 1.79 m/s, 326° | - | - |
| 1777992002 | 15.56° C | 64% | 1007.1 hPa | - | 1.34 m/s, 296° | - | - |
| 1777991701 | 15.56° C | 66% | 1007.1 hPa | - | 2.24 m/s, 309° | - | - |
| 1777991402 | 15.56° C | 66% | 1007.1 hPa | - | 1.34 m/s, 327° | - | - |
| 1777991101 | 15.56° C | 67% | 1007.1 hPa | - | 1.34 m/s, 312° | - | - |
| 1777990802 | 15.56° C | 68% | 1007 hPa | - | 2.68 m/s, 329° | - | - |
* Rain since midnight (hover to see other rain measurements)
** Current wind speed in m/s (hover to see current wind gust speed)